STARLINK-5752 (55577 NORAD) Tracking and Keplerian Element Data

This shows tracking and keplerian element data for the satellite.

Feedback or suggestion? Click here.




ElementValue
Catalog55577
NameSTARLINK-5752
Epoch Orbit130
Epoch Day84.91667824
Epoch Year2023
RAAN110.0256
Inclination42.997
Eccentricity0.0001365
Argument of Perigee270.1257
Mean Anonmoly106.7417
Mean Motion15.24396394
Decay Rate-0.00859277
L11 55577U 23020J 23084.91667824 -.00859277 00000+0 -37370-1 0 9996
L22 55577 42.9970 110.0256 0001365 270.1257 106.7417 15.24396394 1302



Live tracking and technical data element details for STARLINK-5752 (NORAD 55577). STARLINK-5752 can be tracked NOW for your location showing map with azimuth and elevation plus other details from your city location.







IsCatalogInMostPopularTable: catalog: 55577, numindb: -1

Insert: records affected: 1


GetName: 55577 STARLINK-5752

Hit Count: inserted at: Tue, 28 Mar 2023 03:11:55 GMT